SCP
0 -0 0 0 -0 -0 0 -0 0 0 -0 0 0 -0 0 -0 0 -0 0 0 -0 -0 -0 -0 -0 -0 -0 -0 -0 -0 -0 -0
0 0 -0 -0 0 0 0 0 0 -0 0 0 0 0 0 -0 0 0 0 0 -0 -0 -0 -1 -1 -0 -0 -0 -0 -0 -0 -0
0 -0 -0 0 0 0 0 0 -0 0 0 0 0 0 -0 -0 0 0 0 0 0 -0 -0 -0 -1 -0 -0 -0 -0 -0 -0 -0
0 0 0 0 0 0 0 0 0 0 0 0 0 0 -0 -0 0 0 0 0 0 -0 -0 -0 -0 -0 -0 -0 -0 -0 -0 -0
0 0 0 0 0 0 0 0 -0 0 0 0 0 0 -0 -0 -0 -0 0 0 0 0 0 0 -0 -0 -0 -0 -0 -0 -0 -0
-0 0 0 0 0 0 0 0 0 0 0 -0 -0 -0 0 -0 0 0 0 0 0 0 0 0 0 0 0 0 0 0 0 0
0 0 0 0 0 0 -0 0 0 0 -0 0 -0 -0 -0 0 0 0 1 0 0 1 0 0 0 0 0 0 0 0 0 0
-0 0 0 0 0 0 0 0 0 0 0 0 -0 -0 -0 0 0 0 0 0 0 0 0 0 0 0 0 0 0 0 0 -0
0 0 0 0 0 0 0 0 0 0 0 0 0 0 0 0 0 0 0 0 0 1 1 0 0 0 0 0 0 0 0 0
0 0 0 0 0 0 0 0 0 0 0 0 0 0 0 0 0 0 0 0 0 0 0 0 0 0 0 0 0 0 0 0
0 0 0 0 0 0 0 0 -0 0 0 0 0 -0 0 0 0 0 0 0 0 0 0 0 1 1 0 0 0 0 0 0
-0 0 0 0 0 0 0 0 0 0 0 0 0 0 -0 -0 0 0 0 0 0 0 0 0 1 0 0 0 0 0 0 0
-0 0 0 0 0 0 0 0 0 0 0 0 0 0 -0 -0 -0 0 0 0 0 0 0 0 0 0 0 0 0 0 0 0
0 0 0 0 -0 0 0 0 0 0 0 0 0 0 0 -0 -0 0 0 0 0 0 0 0 0 0 0 0 0 0 0 0
0 0 0 0 0 0 0 0 0 0 0 0 0 0 0 0 0 0 0 0 0 0 0 0 0 0 0 0 0 0 0 0
0 0 0 0 0 0 0 0 0 0 0 0 0 0 0 0 0 0 0 0 0 0 0 0 0 0 0 0 0 0 0 0
0 0 0 0 0 0 0 0 0 0 0 1 0 0 0 0 0 0 0 0 0 0 0 0 1 1 1 0 0 0 0 0
0 0 0 0 0 0 0 0 0 0 0 0 0 0 0 0 0 0 0 0 0 0 0 0 0 1 1 1 1 1 1 0
0 0 0 0 0 0 0 0 0 0 0 0 0 0 3 3 2 1 1 1 1 0 0 0 1 1 1 1 1 1 1 1
0 0 0 0 0 0 0 0 0 0 0 1 2 5 4 2 2 1 1 1 1 1 1 1 1 2 2 2 1 1 1 1
Wind_Speed_500mb
8 7 11 9 8 15 13 32 2 9 15 15 22 23 51 50 66 67 66 64 61 57 51 46 43 38 34 32 29 28 26 25
7 14 11 10 10 19 13 25 27 13 5 11 20 37 39 56 55 71 66 65 61 57 52 48 44 39 34 29 27 25 23 22
3 8 11 13 26 42 13 13 23 38 12 11 21 28 50 50 57 68 66 67 64 58 53 47 43 39 35 31 27 24 21 19
6 9 12 15 31 27 22 29 37 19 25 13 23 44 49 52 59 68 63 67 66 60 53 47 41 37 34 31 28 25 21 18
3 9 12 9 53 13 6 17 16 35 12 13 41 42 44 54 60 68 67 67 65 62 56 48 41 37 33 31 27 24 22 19
3 5 12 10 37 23 7 7 31 16 7 12 49 44 43 56 61 68 70 70 69 64 60 56 49 42 37 34 31 26 22 18
7 4 15 37 18 29 7 19 14 16 16 7 54 52 51 62 67 70 71 73 70 65 62 56 51 46 42 37 34 30 25 20
14 7 12 34 17 34 11 4 14 24 27 14 50 52 64 72 73 76 75 71 69 66 63 58 55 50 46 42 39 33 28 24
12 30 26 23 43 31 4 0 11 19 29 36 54 50 58 63 67 67 63 69 67 62 59 58 56 53 49 46 40 35 30 26
21 31 16 10 23 13 15 13 2 20 19 57 59 55 55 59 61 59 55 59 65 66 62 54 51 51 48 46 41 38 33 29
20 28 25 25 25 19 18 15 6 10 14 61 59 50 55 54 56 59 59 37 49 48 64 59 54 50 49 48 44 37 35 32
16 22 16 7 12 12 17 19 15 12 18 34 72 55 52 64 68 71 64 65 62 50 54 60 55 52 52 49 43 39 37 34
7 5 11 12 15 8 25 26 28 25 26 32 56 49 57 55 59 66 75 68 59 58 63 50 28 43 53 48 45 36 34 37
12 15 10 7 16 23 50 37 42 37 31 34 43 56 58 68 62 70 69 72 64 56 52 49 43 36 43 46 39 29 26 33
21 13 5 4 19 28 66 48 55 56 28 27 42 51 63 61 62 72 70 71 72 60 46 46 47 41 38 42 41 32 30 33
12 12 13 14 19 22 59 40 57 43 21 35 46 55 60 63 64 76 75 78 62 50 58 49 38 49 43 39 41 39 44 39
24 31 7 19 13 26 38 19 23 22 39 48 50 53 61 70 71 78 84 86 63 62 62 54 52 55 51 49 39 42 48 37
17 22 8 18 21 14 11 12 15 36 55 61 58 55 51 61 72 75 72 72 64 67 57 53 47 54 55 45 45 43 43 39
14 21 7 9 15 12 11 38 33 6 34 60 61 62 58 60 65 68 69 61 57 60 57 51 47 47 62 47 45 40 52 53
11 7 12 5 17 10 15 10 28 32 16 15 28 57 55 47 45 48 48 50 56 54 57 49 46 43 52 59 49 48 41 42
Wind_Direction_500mb
102 128 190 225 246 280 123 139 24 156 199 163 156 182 164 161 171 175 179 177 173 172 174 171 168 163 157 153 147 141 135 130
104 227 255 223 263 261 153 222 227 216 211 172 150 158 168 167 175 177 180 180 177 176 179 177 173 168 163 157 153 148 142 134
352 277 269 263 267 268 233 228 187 173 194 170 178 174 172 175 181 180 183 182 180 181 183 184 179 174 170 165 160 156 149 138
250 283 267 278 304 287 210 176 163 192 140 163 207 180 184 187 185 185 184 185 183 183 187 189 186 181 176 172 167 162 156 150
161 267 300 252 348 12 87 129 203 150 119 176 185 161 175 176 178 186 187 186 188 186 187 191 194 188 184 182 176 171 167 163
332 256 274 305 354 345 52 195 158 125 173 203 188 175 161 172 181 188 190 188 190 190 190 192 194 194 191 189 186 185 183 176
237 246 276 313 24 357 112 167 166 201 259 209 184 188 188 183 183 191 195 192 193 195 194 196 198 198 197 197 194 193 191 189
202 242 286 309 339 333 19 100 283 264 255 209 189 188 192 187 189 193 196 197 197 198 199 198 200 203 202 203 202 200 198 198
239 276 297 295 304 315 182 283 332 264 210 191 193 195 197 187 195 194 196 202 200 204 207 204 204 206 208 210 209 208 209 208
289 307 317 269 305 274 232 204 274 333 232 191 197 197 200 196 195 198 196 205 204 207 210 213 214 214 216 218 218 217 218 218
317 308 296 288 258 248 250 260 249 292 233 197 203 197 205 206 205 198 191 220 203 212 213 212 216 220 222 224 225 227 229 231
302 306 305 240 269 154 258 244 247 255 270 208 202 200 195 204 205 203 202 206 201 193 198 208 216 222 225 227 231 232 236 239
327 14 308 326 334 251 281 276 259 226 237 230 196 202 210 211 211 213 209 207 207 205 203 196 203 228 231 231 232 231 243 240
291 327 321 55 277 281 318 277 260 251 238 226 231 222 217 214 215 215 209 206 209 213 201 199 209 214 224 226 219 225 239 228
324 308 340 28 291 286 305 288 265 250 243 220 214 216 216 222 224 223 211 209 215 209 211 212 212 214 220 218 224 226 228 236
273 279 339 306 267 290 309 287 248 238 217 204 203 213 208 215 221 214 205 210 216 235 211 215 221 220 217 221 225 232 241 241
278 282 260 274 277 288 315 306 241 197 184 183 181 188 194 200 208 211 203 208 220 219 215 220 229 227 226 229 233 241 236 241
284 275 152 287 288 285 302 311 278 184 176 176 167 171 182 195 204 207 213 222 224 217 218 228 235 233 231 236 237 242 245 253
253 305 254 267 303 329 346 36 35 66 166 170 170 167 176 183 192 200 202 204 212 221 230 228 235 234 230 226 222 237 259 258
266 347 291 121 286 307 350 353 12 2 14 120 151 160 163 165 174 190 201 202 207 216 223 224 227 222 229 237 241 249 260 257
Wind_Speed_850mb
8 7 11 9 8 15 13 32 2 9 15 15 22 23 51 50 66 67 66 64 61 57 51 46 43 38 34 32 29 28 26 25
7 14 11 10 10 19 13 25 27 13 5 11 20 37 39 56 55 71 66 65 61 57 52 48 44 39 34 29 27 25 23 22
3 8 11 13 26 42 13 13 23 38 12 11 21 28 50 50 57 68 66 67 64 58 53 47 43 39 35 31 27 24 21 19
6 9 12 15 31 27 22 29 37 19 25 13 23 44 49 52 59 68 63 67 66 60 53 47 41 37 34 31 28 25 21 18
3 9 12 9 53 13 6 17 16 35 12 13 41 42 44 54 60 68 67 67 65 62 56 48 41 37 33 31 27 24 22 19
3 5 12 10 37 23 7 7 31 16 7 12 49 44 43 56 61 68 70 70 69 64 60 56 49 42 37 34 31 26 22 18
7 4 15 37 18 29 7 19 14 16 16 7 54 52 51 62 67 70 71 73 70 65 62 56 51 46 42 37 34 30 25 20
14 7 12 34 17 34 11 4 14 24 27 14 50 52 64 72 73 76 75 71 69 66 63 58 55 50 46 42 39 33 28 24
12 30 26 23 43 31 4 0 11 19 29 36 54 50 58 63 67 67 63 69 67 62 59 58 56 53 49 46 40 35 30 26
21 31 16 10 23 13 15 13 2 20 19 57 59 55 55 59 61 59 55 59 65 66 62 54 51 51 48 46 41 38 33 29
20 28 25 25 25 19 18 15 6 10 14 61 59 50 55 54 56 59 59 37 49 48 64 59 54 50 49 48 44 37 35 32
16 22 16 7 12 12 17 19 15 12 18 34 72 55 52 64 68 71 64 65 62 50 54 60 55 52 52 49 43 39 37 34
7 5 11 12 15 8 25 26 28 25 26 32 56 49 57 55 59 66 75 68 59 58 63 50 28 43 53 48 45 36 34 37
12 15 10 7 16 23 50 37 42 37 31 34 43 56 58 68 62 70 69 72 64 56 52 49 43 36 43 46 39 29 26 33
21 13 5 4 19 28 66 48 55 56 28 27 42 51 63 61 62 72 70 71 72 60 46 46 47 41 38 42 41 32 30 33
12 12 13 14 19 22 59 40 57 43 21 35 46 55 60 63 64 76 75 78 62 50 58 49 38 49 43 39 41 39 44 39
24 31 7 19 13 26 38 19 23 22 39 48 50 53 61 70 71 78 84 86 63 62 62 54 52 55 51 49 39 42 48 37
17 22 8 18 21 14 11 12 15 36 55 61 58 55 51 61 72 75 72 72 64 67 57 53 47 54 55 45 45 43 43 39
14 21 7 9 15 12 11 38 33 6 34 60 61 62 58 60 65 68 69 61 57 60 57 51 47 47 62 47 45 40 52 53
11 7 12 5 17 10 15 10 28 32 16 15 28 57 55 47 45 48 48 50 56 54 57 49 46 43 52 59 49 48 41 42
Wind_Direction_850mb
102 128 190 225 246 280 123 139 24 156 199 163 156 182 164 161 171 175 179 177 173 172 174 171 168 163 157 153 147 141 135 130
104 227 255 223 263 261 153 222 227 216 211 172 150 158 168 167 175 177 180 180 177 176 179 177 173 168 163 157 153 148 142 134
352 277 269 263 267 268 233 228 187 173 194 170 178 174 172 175 181 180 183 182 180 181 183 184 179 174 170 165 160 156 149 138
250 283 267 278 304 287 210 176 163 192 140 163 207 180 184 187 185 185 184 185 183 183 187 189 186 181 176 172 167 162 156 150
161 267 300 252 348 12 87 129 203 150 119 176 185 161 175 176 178 186 187 186 188 186 187 191 194 188 184 182 176 171 167 163
332 256 274 305 354 345 52 195 158 125 173 203 188 175 161 172 181 188 190 188 190 190 190 192 194 194 191 189 186 185 183 176
237 246 276 313 24 357 112 167 166 201 259 209 184 188 188 183 183 191 195 192 193 195 194 196 198 198 197 197 194 193 191 189
202 242 286 309 339 333 19 100 283 264 255 209 189 188 192 187 189 193 196 197 197 198 199 198 200 203 202 203 202 200 198 198
239 276 297 295 304 315 182 283 332 264 210 191 193 195 197 187 195 194 196 202 200 204 207 204 204 206 208 210 209 208 209 208
289 307 317 269 305 274 232 204 274 333 232 191 197 197 200 196 195 198 196 205 204 207 210 213 214 214 216 218 218 217 218 218
317 308 296 288 258 248 250 260 249 292 233 197 203 197 205 206 205 198 191 220 203 212 213 212 216 220 222 224 225 227 229 231
302 306 305 240 269 154 258 244 247 255 270 208 202 200 195 204 205 203 202 206 201 193 198 208 216 222 225 227 231 232 236 239
327 14 308 326 334 251 281 276 259 226 237 230 196 202 210 211 211 213 209 207 207 205 203 196 203 228 231 231 232 231 243 240
291 327 321 55 277 281 318 277 260 251 238 226 231 222 217 214 215 215 209 206 209 213 201 199 209 214 224 226 219 225 239 228
324 308 340 28 291 286 305 288 265 250 243 220 214 216 216 222 224 223 211 209 215 209 211 212 212 214 220 218 224 226 228 236
273 279 339 306 267 290 309 287 248 238 217 204 203 213 208 215 221 214 205 210 216 235 211 215 221 220 217 221 225 232 241 241
278 282 260 274 277 288 315 306 241 197 184 183 181 188 194 200 208 211 203 208 220 219 215 220 229 227 226 229 233 241 236 241
284 275 152 287 288 285 302 311 278 184 176 176 167 171 182 195 204 207 213 222 224 217 218 228 235 233 231 236 237 242 245 253
253 305 254 267 303 329 346 36 35 66 166 170 170 167 176 183 192 200 202 204 212 221 230 228 235 234 230 226 222 237 259 258
266 347 291 121 286 307 350 353 12 2 14 120 151 160 163 165 174 190 201 202 207 216 223 224 227 222 229 237 241 249 260 257